Location: Brantley
(31.5822°N, 86.2569°W)
Time: 02:27:02
(UTC+00:00)

Transit 2A Rocket - Pass Details

Date: 19 February 2026
Orbit: 583 x 900 km, 66.7° (Epoch: 5 March)

Event Time Altitude Azimuth Distance (km) Brightness Sun altitude
Rises 19:29:12 0° 163° (SSE) 3,418 8.8 42.2°
Reaches altitude 10° 19:32:25 10° 145° (SE) 2,523 8.0 41.8°
Maximum altitude 19:36:14 18° 104° (ESE) 2,046 7.2 41.4°
Drops below altitude 10° 19:40:07 10° 64° (ENE) 2,574 7.4 40.9°
Sets 19:43:26 0° 46° (NE) 3,516 8.0 40.5°
